^^
B2 Weather Station Historical Data
Daily Summary for March 17, 2018 Units:  English    Metric   Both
Daily Weekly Monthly Yearly Custom
  High: Low: Average:
Temperature: 41.1 °F 27.6 °F 33.4 °F
Dew Point: 33.4 °F 23.1 °F 29.7 °F
Humidity: 93% 68% 87%
Wind Speed: 11.5mph 0.0mph 2.6mph
Wind Gust: 11.5mph - -
Wind- - NE
Pressure: 30.07 in 29.90 in -
Precipitation: 0.29 in    
Historical Graphs
 
 
Tabular Data for March 17, 2018
Time Temperature Dew Point Pressure Wind Wind Speed Wind Gust Humidity Rainfall Rate (Hourly) solar
00:03 32.3 °F 26.8 °F 30.05 in NE 3.5 mph 3.5 mph 80% 0.00 in 0.0 W/m2
00:08 32.2 °F 27.0 °F 30.04 in ENE 3.5 mph 3.5 mph 81% 0.00 in 0.0 W/m2
00:13 32.1 °F 27.2 °F 30.04 in NE 3.5 mph 3.5 mph 82% 0.01 in 0.0 W/m2
00:19 32.2 °F 27.9 °F 30.04 in NE 3.5 mph 3.5 mph 84% 0.03 in 0.0 W/m2
00:24 32.2 °F 28.2 °F 30.04 in NE 3.5 mph 3.5 mph 85% 0.05 in 0.0 W/m2
00:29 32.1 °F 28.4 °F 30.04 in NE 2.3 mph   86% 0.07 in 0.0 W/m2
00:34 32.1 °F 28.4 °F 30.03 in NE 4.0 mph 4.0 mph 86% 0.08 in 0.0 W/m2
00:39 32.0 °F 28.6 °F 30.02 in NE 6.9 mph 6.9 mph 87% 0.10 in 0.0 W/m2
00:44 31.9 °F 28.8 °F 30.01 in NE 5.8 mph 5.8 mph 88% 0.11 in 0.0 W/m2
00:49 31.9 °F 28.8 °F 30.01 in NE 8.1 mph 8.1 mph 88% 0.12 in 0.0 W/m2
00:54 31.8 °F 28.7 °F 30.01 in NE 6.9 mph 6.9 mph 88% 0.13 in 0.0 W/m2
00:59 31.8 °F 28.9 °F 30.01 in NE 5.0 mph 5.0 mph 89% 0.14 in 0.0 W/m2
01:04 31.7 °F 28.8 °F 30.01 in NE 5.8 mph 5.8 mph 89% 0.16 in 0.0 W/m2
01:09 31.7 °F 28.8 °F 30.01 in ENE 2.3 mph 2.3 mph 89% 0.18 in 0.0 W/m2
01:14 31.7 °F 28.8 °F 30.02 in Calm     89% 0.19 in 0.0 W/m2
01:19 31.7 °F 28.8 °F 30.01 in Calm     89% 0.18 in 0.0 W/m2
01:24 31.8 °F 28.9 °F 30.01 in Calm     89% 0.17 in 0.0 W/m2
01:29 31.8 °F 29.2 °F 30.01 in Calm     90% 0.15 in 0.0 W/m2
01:34 31.7 °F 29.1 °F 30.01 in Calm     90% 0.13 in 0.0 W/m2
01:39 31.7 °F 29.1 °F 30.00 in Calm     90% 0.12 in 0.0 W/m2
01:44 31.7 °F 29.1 °F 30.00 in Calm     90% 0.11 in 0.0 W/m2
01:49 31.7 °F 29.1 °F 30.00 in Calm     90% 0.11 in 0.0 W/m2
01:54 31.7 °F 29.1 °F 30.00 in Calm     90% 0.10 in 0.0 W/m2
01:59 31.7 °F 29.1 °F 30.00 in Calm     90% 0.09 in 0.0 W/m2
02:04 31.8 °F 29.2 °F 30.00 in Calm     90% 0.07 in 0.0 W/m2
02:09 31.8 °F 29.2 °F 29.99 in Calm     90% 0.06 in 0.0 W/m2
02:14 31.8 °F 29.2 °F 30.00 in Calm     90% 0.04 in 0.0 W/m2
02:19 31.8 °F 29.2 °F 30.00 in Calm     90% 0.04 in 0.0 W/m2
02:24 31.7 °F 29.1 °F 29.99 in Calm     90% 0.03 in 0.0 W/m2
02:29 31.7 °F 29.1 °F 29.99 in Calm     90% 0.03 in 0.0 W/m2
02:34 31.7 °F 29.1 °F 29.99 in Calm     90% 0.03 in 0.0 W/m2
02:39 31.6 °F 29.0 °F 29.98 in Calm     90% 0.03 in 0.0 W/m2
02:44 31.5 °F 28.9 °F 29.98 in Calm     90% 0.03 in 0.0 W/m2
02:49 31.6 °F 29.0 °F 29.97 in Calm     90% 0.02 in 0.0 W/m2
02:54 31.5 °F 28.9 °F 29.96 in Calm     90% 0.02 in 0.0 W/m2
02:59 31.5 °F 29.2 °F 29.96 in Calm     91% 0.02 in 0.0 W/m2
03:09 31.6 °F 29.3 °F 29.95 in Calm     91% 0.02 in 0.0 W/m2
03:14 31.6 °F 29.3 °F 29.95 in Calm     91% 0.02 in 0.0 W/m2
03:19 31.6 °F 29.3 °F 29.96 in Calm     91% 0.01 in 0.0 W/m2
03:24 31.7 °F 29.4 °F 29.95 in Calm     91% 0.02 in 0.0 W/m2
03:29 31.7 °F 29.6 °F 29.95 in Calm     92% 0.03 in 0.0 W/m2
03:34 31.6 °F 29.5 °F 29.95 in Calm     92% 0.03 in 0.0 W/m2
03:39 31.7 °F 29.6 °F 29.95 in Calm     92% 0.03 in 0.0 W/m2
03:44 31.6 °F 29.5 °F 29.95 in Calm     92% 0.03 in 0.0 W/m2
03:49 31.7 °F 29.6 °F 29.94 in Calm     92% 0.04 in 0.0 W/m2
03:54 31.6 °F 29.5 °F 29.94 in Calm     92% 0.04 in 0.0 W/m2
03:59 31.6 °F 29.5 °F 29.93 in Calm     92% 0.04 in 0.0 W/m2
04:04 31.6 °F 29.5 °F 29.92 in Calm     92% 0.04 in 0.0 W/m2
04:09 31.5 °F 29.4 °F 29.92 in Calm     92% 0.03 in 0.0 W/m2
04:14 31.5 °F 29.4 °F 29.92 in Calm     92% 0.03 in 0.0 W/m2
04:19 31.5 °F 29.4 °F 29.91 in Calm     92% 0.03 in 0.0 W/m2
04:24 31.5 °F 29.4 °F 29.91 in Calm     92% 0.02 in 0.0 W/m2
04:29 31.5 °F 29.4 °F 29.91 in Calm     92% 0.01 in 0.0 W/m2
04:34 31.4 °F 29.3 °F 29.92 in Calm     92% 0.01 in 0.0 W/m2
04:39 31.5 °F 29.4 °F 29.92 in Calm     92% 0.01 in 0.0 W/m2
04:44 31.5 °F 29.4 °F 29.92 in Calm     92% 0.01 in 0.0 W/m2
04:49 31.5 °F 29.4 °F 29.92 in Calm     92% 0.00 in 0.0 W/m2
04:54 31.5 °F 29.4 °F 29.92 in Calm     92% 0.00 in 0.0 W/m2
04:59 31.5 °F 29.4 °F 29.92 in Calm     92% 0.00 in 0.0 W/m2
05:04 31.5 °F 29.4 °F 29.92 in Calm     92% 0.00 in 0.0 W/m2
05:09 31.5 °F 29.7 °F 29.92 in Calm     93% 0.00 in 0.0 W/m2
05:14 31.5 °F 29.7 °F 29.92 in Calm     93% 0.00 in 0.0 W/m2
05:19 31.5 °F 29.7 °F 29.92 in Calm     93% 0.00 in 0.0 W/m2
05:24 31.5 °F 29.7 °F 29.92 in Calm     93% 0.00 in 0.0 W/m2
05:29 31.5 °F 29.7 °F 29.92 in Calm     93% 0.00 in 0.0 W/m2
05:34 31.5 °F 29.7 °F 29.91 in Calm     93% 0.00 in 0.0 W/m2
05:39 31.5 °F 29.7 °F 29.92 in Calm     93% 0.00 in 0.0 W/m2
05:44 31.5 °F 29.7 °F 29.91 in Calm     93% 0.00 in 0.0 W/m2
05:49 31.6 °F 29.8 °F 29.91 in Calm     93% 0.00 in 0.0 W/m2
05:54 31.6 °F 29.8 °F 29.91 in Calm     93% 0.00 in 0.0 W/m2
05:59 31.6 °F 29.8 °F 29.91 in Calm     93% 0.00 in 0.0 W/m2
06:04 31.6 °F 29.8 °F 29.91 in Calm     93% 0.00 in 0.0 W/m2
06:09 31.6 °F 29.8 °F 29.91 in Calm     93% 0.00 in 0.0 W/m2
06:14 31.6 °F 29.8 °F 29.90 in Calm     93% 0.00 in 0.0 W/m2
06:19 31.6 °F 29.8 °F 29.90 in Calm     93% 0.00 in 0.0 W/m2
06:24 31.6 °F 29.8 °F 29.90 in Calm     93% 0.00 in 0.0 W/m2
06:29 31.6 °F 29.8 °F 29.90 in Calm     93% 0.00 in 0.0 W/m2
06:34 31.6 °F 29.8 °F 29.90 in Calm     93% 0.00 in 0.0 W/m2
06:39 31.6 °F 29.8 °F 29.90 in Calm     93% 0.00 in 0.0 W/m2
06:44 31.5 °F 29.7 °F 29.90 in Calm     93% 0.00 in 0.0 W/m2
06:49 31.5 °F 29.7 °F 29.91 in Calm     93% 0.00 in 0.0 W/m2
06:54 31.5 °F 29.7 °F 29.91 in Calm     93% 0.00 in 0.0 W/m2
06:59 31.5 °F 29.7 °F 29.91 in Calm     93% 0.00 in 0.0 W/m2
07:04 31.5 °F 29.7 °F 29.90 in Calm     93% 0.00 in 0.0 W/m2
07:09 31.5 °F 29.7 °F 29.91 in Calm     93% 0.00 in 0.0 W/m2
07:14 31.5 °F 29.7 °F 29.91 in Calm     93% 0.00 in 0.0 W/m2
07:19 31.6 °F 29.8 °F 29.90 in Calm     93% 0.00 in 0.0 W/m2
07:24 31.6 °F 29.8 °F 29.91 in Calm     93% 0.00 in 0.0 W/m2
07:29 31.6 °F 29.8 °F 29.90 in Calm     93% 0.00 in 7.0 W/m2
07:34 31.6 °F 29.8 °F 29.91 in Calm     93% 0.00 in 7.0 W/m2
07:39 31.7 °F 29.9 °F 29.91 in Calm     93% 0.00 in 9.0 W/m2
07:44 31.6 °F 29.8 °F 29.91 in Calm     93% 0.00 in 9.0 W/m2
07:49 31.6 °F 29.8 °F 29.91 in Calm     93% 0.00 in 11.0 W/m2
07:54 31.7 °F 29.9 °F 29.91 in Calm     93% 0.00 in 18.0 W/m2
07:59 31.7 °F 29.9 °F 29.91 in Calm     93% 0.00 in 23.0 W/m2
08:04 31.7 °F 29.9 °F 29.91 in Calm     93% 0.00 in 26.0 W/m2
08:09 31.8 °F 30.0 °F 29.91 in Calm     93% 0.00 in 30.0 W/m2
08:14 31.8 °F 30.0 °F 29.91 in Calm     93% 0.00 in 42.0 W/m2
08:19 31.9 °F 30.1 °F 29.91 in Calm     93% 0.00 in 54.0 W/m2
08:24 31.9 °F 30.1 °F 29.91 in Calm     93% 0.00 in 51.0 W/m2
08:29 31.9 °F 30.1 °F 29.91 in Calm     93% 0.00 in 83.0 W/m2
08:34 32.0 °F 30.2 °F 29.91 in Calm     93% 0.00 in 86.0 W/m2
08:39 32.0 °F 30.2 °F 29.91 in Calm     93% 0.00 in 102.0 W/m2
08:44 32.0 °F 30.2 °F 29.91 in Calm     93% 0.00 in 109.0 W/m2
08:49 32.0 °F 30.2 °F 29.91 in Calm     93% 0.00 in 104.0 W/m2
08:55 32.0 °F 30.2 °F 29.91 in Calm     93% 0.00 in 95.0 W/m2
09:00 32.0 °F 30.2 °F 29.91 in Calm     93% 0.00 in 84.0 W/m2
09:05 32.0 °F 30.2 °F 29.91 in Calm     93% 0.00 in 76.0 W/m2
09:10 32.0 °F 30.2 °F 29.91 in Calm     93% 0.00 in 70.0 W/m2
09:15 32.0 °F 30.2 °F 29.91 in Calm     93% 0.00 in 67.0 W/m2
09:20 32.0 °F 30.2 °F 29.91 in Calm     93% 0.00 in 74.0 W/m2
09:25 32.1 °F 30.3 °F 29.91 in Calm     93% 0.00 in 77.0 W/m2
09:30 32.1 °F 30.3 °F 29.91 in Calm     93% 0.00 in 79.0 W/m2
09:35 32.2 °F 30.4 °F 29.91 in Calm     93% 0.00 in 74.0 W/m2
09:40 32.2 °F 30.4 °F 29.91 in Calm     93% 0.00 in 74.0 W/m2
09:45 32.2 °F 30.4 °F 29.91 in Calm     93% 0.00 in 79.0 W/m2
09:50 32.3 °F 30.5 °F 29.91 in Calm     93% 0.00 in 81.0 W/m2
09:55 32.3 °F 30.5 °F 29.91 in Calm     93% 0.00 in 83.0 W/m2
10:00 32.3 °F 30.2 °F 29.92 in Calm     92% 0.00 in 84.0 W/m2
10:05 32.4 °F 30.3 °F 29.92 in Calm     92% 0.00 in 86.0 W/m2
10:10 32.4 °F 30.3 °F 29.92 in Calm     92% 0.00 in 91.0 W/m2
10:15 32.5 °F 30.4 °F 29.92 in Calm     92% 0.00 in 100.0 W/m2
10:20 32.5 °F 30.4 °F 29.92 in Calm     92% 0.00 in 109.0 W/m2
10:25 32.6 °F 30.5 °F 29.92 in Calm     92% 0.00 in 102.0 W/m2
10:30 32.8 °F 30.7 °F 29.92 in Calm     92% 0.00 in 104.0 W/m2
10:35 32.8 °F 30.7 °F 29.92 in Calm     92% 0.00 in 83.0 W/m2
10:40 32.8 °F 30.7 °F 29.92 in Calm     92% 0.00 in 93.0 W/m2
10:45 32.8 °F 30.7 °F 29.92 in Calm     92% 0.00 in 111.0 W/m2
10:50 33.0 °F 31.2 °F 29.92 in Calm     93% 0.00 in 118.0 W/m2
10:55 33.0 °F 31.2 °F 29.92 in Calm     93% 0.00 in 156.0 W/m2
11:00 33.2 °F 31.4 °F 29.92 in Calm     93% 0.00 in 172.0 W/m2
11:05 33.4 °F 31.6 °F 29.92 in East 6.9 mph 6.9 mph 93% 0.00 in 174.0 W/m2
11:10 33.6 °F 31.8 °F 29.92 in NE 6.9 mph 6.9 mph 93% 0.00 in 216.0 W/m2
11:15 33.9 °F 32.1 °F 29.92 in NE 4.6 mph 4.6 mph 93% 0.00 in 171.0 W/m2
11:20 34.1 °F 32.3 °F 29.93 in ENE 8.0 mph 8.0 mph 93% 0.00 in 146.0 W/m2
11:25 34.1 °F 32.3 °F 29.93 in ENE 8.0 mph 8.0 mph 93% 0.00 in 114.0 W/m2
11:30 34.0 °F 31.9 °F 29.93 in ENE 8.1 mph 8.1 mph 92% 0.00 in 97.0 W/m2
11:35 34.1 °F 32.3 °F 29.93 in ENE 6.9 mph 6.9 mph 93% 0.00 in 118.0 W/m2
11:40 34.2 °F 32.4 °F 29.93 in NE 8.1 mph 8.1 mph 93% 0.00 in 109.0 W/m2
11:45 34.3 °F 32.5 °F 29.93 in NE 6.9 mph 6.9 mph 93% 0.00 in 102.0 W/m2
11:50 34.2 °F 32.1 °F 29.93 in NNE 6.9 mph 6.9 mph 92% 0.00 in 98.0 W/m2
11:55 34.4 °F 32.6 °F 29.93 in NNE 6.9 mph 6.9 mph 93% 0.00 in 93.0 W/m2
12:00 34.4 °F 32.6 °F 29.94 in NE 6.9 mph 6.9 mph 93% 0.00 in 72.0 W/m2
12:05 34.3 °F 32.5 °F 29.94 in NE 8.1 mph 8.1 mph 93% 0.00 in 72.0 W/m2
12:10 34.3 °F 32.5 °F 29.94 in ENE 5.0 mph 5.0 mph 93% 0.00 in 72.0 W/m2
12:15 34.3 °F 32.5 °F 29.94 in NE 8.1 mph 8.1 mph 93% 0.00 in 74.0 W/m2
12:20 34.2 °F 32.1 °F 29.95 in NE 8.1 mph 8.1 mph 92% 0.00 in 74.0 W/m2
12:25 34.3 °F 32.5 °F 29.95 in NE 9.2 mph 9.2 mph 93% 0.00 in 72.0 W/m2
12:30 34.3 °F 32.5 °F 29.95 in NE 8.1 mph 8.1 mph 93% 0.00 in 88.0 W/m2
12:35 34.3 °F 32.5 °F 29.95 in NE 8.1 mph 8.1 mph 93% 0.00 in 81.0 W/m2
12:40 34.5 °F 32.7 °F 29.96 in NNE 9.0 mph 9.0 mph 93% 0.00 in 77.0 W/m2
12:45 34.6 °F 32.8 °F 29.95 in NNE 7.0 mph 7.0 mph 93% 0.00 in 76.0 W/m2
12:50 34.7 °F 32.9 °F 29.95 in NNE 11.5 mph 11.5 mph 93% 0.00 in 79.0 W/m2
12:55 34.7 °F 32.9 °F 29.95 in NE 9.2 mph 9.2 mph 93% 0.00 in 81.0 W/m2
13:00 34.7 °F 32.9 °F 29.95 in NE 8.1 mph 8.1 mph 93% 0.00 in 77.0 W/m2
13:05 34.7 °F 32.6 °F 29.95 in NNE 9.2 mph 9.2 mph 92% 0.00 in 72.0 W/m2
13:10 34.6 °F 32.5 °F 29.95 in NE 11.5 mph 11.5 mph 92% 0.00 in 72.0 W/m2
13:15 34.6 °F 32.5 °F 29.95 in NNE 10.4 mph 10.4 mph 92% 0.00 in 69.0 W/m2
13:20 34.8 °F 32.7 °F 29.95 in NE 10.4 mph 10.4 mph 92% 0.00 in 76.0 W/m2
13:25 34.8 °F 32.7 °F 29.95 in NE 8.1 mph 8.1 mph 92% 0.00 in 76.0 W/m2
13:30 35.0 °F 32.9 °F 29.95 in NNE 9.2 mph 9.2 mph 92% 0.00 in 70.0 W/m2
13:35 35.0 °F 32.6 °F 29.95 in NE 10.4 mph 10.4 mph 91% 0.00 in 70.0 W/m2
13:40 35.0 °F 32.6 °F 29.95 in NE 11.5 mph 11.5 mph 91% 0.00 in 62.0 W/m2
13:45 35.1 °F 32.7 °F 29.95 in NNE 6.9 mph 6.9 mph 91% 0.00 in 60.0 W/m2
13:50 35.1 °F 32.7 °F 29.95 in NE 8.1 mph 8.1 mph 91% 0.00 in 63.0 W/m2
13:55 35.2 °F 32.8 °F 29.96 in NNE 9.2 mph 9.2 mph 91% 0.00 in 77.0 W/m2
14:00 35.2 °F 32.6 °F 29.96 in NNE 10.4 mph 10.4 mph 90% 0.00 in 77.0 W/m2
14:05 35.3 °F 32.7 °F 29.95 in NNE 9.2 mph 9.2 mph 90% 0.00 in 88.0 W/m2
14:10 35.5 °F 32.6 °F 29.95 in North 8.1 mph 8.1 mph 89% 0.00 in 97.0 W/m2
14:15 35.5 °F 32.3 °F 29.96 in NE 11.5 mph 11.5 mph 88% 0.00 in 102.0 W/m2
14:20 35.6 °F 31.8 °F 29.96 in NE 11.5 mph 11.5 mph 86% 0.00 in 113.0 W/m2
14:25 35.7 °F 31.9 °F 29.96 in NE 6.9 mph 6.9 mph 86% 0.00 in 134.0 W/m2
14:30 36.0 °F 31.9 °F 29.95 in ENE 10.4 mph 10.4 mph 85% 0.00 in 148.0 W/m2
14:35 36.4 °F 32.0 °F 29.96 in ENE 9.2 mph 9.2 mph 84% 0.00 in 162.0 W/m2
14:40 36.6 °F 31.9 °F 29.96 in NE 11.5 mph 11.5 mph 83% 0.00 in 183.0 W/m2
14:45 36.9 °F 32.2 °F 29.96 in ENE 8.1 mph 8.1 mph 83% 0.00 in 202.0 W/m2
14:50 37.3 °F 32.9 °F 29.96 in ENE 8.1 mph 8.1 mph 84% 0.00 in 220.0 W/m2
14:55 37.6 °F 32.9 °F 29.96 in NNE 9.2 mph 9.2 mph 83% 0.00 in 213.0 W/m2
15:00 37.9 °F 33.2 °F 29.96 in NE 10.4 mph 10.4 mph 83% 0.00 in 229.0 W/m2
15:05 38.1 °F 33.4 °F 29.96 in NE 9.2 mph 9.2 mph 83% 0.00 in 227.0 W/m2
15:10 38.1 °F 32.8 °F 29.96 in NNE 10.4 mph 10.4 mph 81% 0.00 in 183.0 W/m2
15:15 37.9 °F 32.3 °F 29.96 in NNE 10.4 mph 10.4 mph 80% 0.00 in 149.0 W/m2
15:20 37.7 °F 32.1 °F 29.96 in NNE 10.4 mph 10.4 mph 80% 0.00 in 148.0 W/m2
15:25 37.8 °F 32.8 °F 29.96 in North 3.5 mph 3.5 mph 82% 0.00 in 148.0 W/m2
15:30 37.6 °F 32.3 °F 29.96 in North 8.1 mph 8.1 mph 81% 0.00 in 134.0 W/m2
15:35 37.5 °F 32.2 °F 29.96 in North 8.1 mph 8.1 mph 81% 0.00 in 130.0 W/m2
15:40 37.4 °F 31.8 °F 29.96 in NNE 6.9 mph 6.9 mph 80% 0.00 in 125.0 W/m2
15:45 37.4 °F 31.8 °F 29.96 in NNE 6.9 mph 6.9 mph 80% 0.00 in 130.0 W/m2
15:50 37.6 °F 32.0 °F 29.96 in NNE 8.1 mph 8.1 mph 80% 0.00 in 148.0 W/m2
15:55 37.7 °F 32.1 °F 29.96 in NNE 8.1 mph 8.1 mph 80% 0.00 in 132.0 W/m2
16:00 37.8 °F 31.9 °F 29.96 in NNE 5.8 mph 5.8 mph 79% 0.00 in 118.0 W/m2
16:05 37.9 °F 31.7 °F 29.96 in NNE 6.9 mph 6.9 mph 78% 0.00 in 130.0 W/m2
16:10 38.0 °F 31.4 °F 29.96 in NE 6.9 mph 6.9 mph 77% 0.00 in 139.0 W/m2
16:15 38.2 °F 32.3 °F 29.96 in NE 5.8 mph 5.8 mph 79% 0.00 in 146.0 W/m2
16:20 38.5 °F 32.6 °F 29.96 in NNE 5.8 mph 5.8 mph 79% 0.00 in 149.0 W/m2
16:25 38.7 °F 32.4 °F 29.96 in NE 6.9 mph 6.9 mph 78% 0.00 in 162.0 W/m2
16:30 38.9 °F 32.9 °F 29.96 in NE 5.8 mph 5.8 mph 79% 0.00 in 172.0 W/m2
16:36 38.9 °F 32.3 °F 29.96 in NNE 7.0 mph 7.0 mph 77% 0.00 in 178.0 W/m2
16:41 39.1 °F 31.8 °F 29.96 in NE 6.0 mph 6.0 mph 75% 0.00 in 169.0 W/m2
16:46 39.2 °F 32.6 °F 29.96 in NE 6.9 mph 6.9 mph 77% 0.00 in 169.0 W/m2
16:51 39.5 °F 32.6 °F 29.96 in NE 8.1 mph 8.1 mph 76% 0.00 in 323.0 W/m2
16:56 40.0 °F 32.7 °F 29.96 in North 5.8 mph 5.8 mph 75% 0.00 in 260.0 W/m2
17:01 40.3 °F 32.7 °F 29.96 in NE 9.2 mph 9.2 mph 74% 0.00 in 299.0 W/m2
17:06 40.5 °F 32.5 °F 29.96 in North 8.1 mph 8.1 mph 73% 0.00 in 267.0 W/m2
17:11 40.5 °F 32.2 °F 29.97 in NNE 8.1 mph 8.1 mph 72% 0.00 in 156.0 W/m2
17:16 40.5 °F 31.8 °F 29.96 in NE 6.9 mph 6.9 mph 71% 0.00 in 311.0 W/m2
17:21 40.5 °F 31.8 °F 29.97 in NNE 9.2 mph 9.2 mph 71% 0.00 in 278.0 W/m2
17:26 40.6 °F 31.9 °F 29.97 in NNE 8.1 mph 8.1 mph 71% 0.00 in 264.0 W/m2
17:31 40.7 °F 31.7 °F 29.97 in NNE 8.1 mph 8.1 mph 70% 0.00 in 250.0 W/m2
17:36 40.9 °F 31.9 °F 29.97 in NNE 6.9 mph 6.9 mph 70% 0.00 in 207.0 W/m2
17:41 41.0 °F 31.2 °F 29.97 in North 8.1 mph 8.1 mph 68% 0.00 in 216.0 W/m2
17:46 41.0 °F 31.2 °F 29.97 in NNE 5.8 mph 5.8 mph 68% 0.00 in 202.0 W/m2
17:51 41.1 °F 31.3 °F 29.97 in NNE 4.6 mph 4.6 mph 68% 0.00 in 169.0 W/m2
17:56 41.1 °F 31.7 °F 29.97 in NE 4.0 mph 4.0 mph 69% 0.00 in 107.0 W/m2
18:01 40.8 °F 31.8 °F 29.98 in NE 3.5 mph 3.5 mph 70% 0.00 in 90.0 W/m2
18:06 40.6 °F 31.9 °F 29.98 in Calm     71% 0.00 in 102.0 W/m2
18:11 40.6 °F 31.6 °F 29.98 in Calm     70% 0.00 in 81.0 W/m2
18:16 40.4 °F 31.4 °F 29.98 in Calm     70% 0.00 in 25.0 W/m2
18:21 40.2 °F 31.2 °F 29.98 in Calm     70% 0.00 in 23.0 W/m2
18:26 40.0 °F 31.0 °F 29.99 in Calm     70% 0.00 in 21.0 W/m2
18:31 39.8 °F 30.5 °F 29.99 in Calm     69% 0.00 in 19.0 W/m2
18:36 39.3 °F 30.3 °F 30.00 in NNE 3.5 mph 3.5 mph 70% 0.00 in 16.0 W/m2
18:41 38.8 °F 30.5 °F 30.00 in NNE 2.3 mph 2.3 mph 72% 0.00 in 14.0 W/m2
18:46 38.2 °F 30.6 °F 30.00 in Calm     74% 0.00 in 11.0 W/m2
18:51 37.4 °F 30.2 °F 30.00 in Calm     75% 0.00 in 9.0 W/m2
18:56 36.5 °F 30.0 °F 30.00 in Calm     77% 0.00 in 5.0 W/m2
19:01 35.7 °F 29.5 °F 30.00 in Calm     78% 0.00 in 0.0 W/m2
19:06 35.1 °F 29.2 °F 30.00 in Calm     79% 0.00 in 0.0 W/m2
19:11 34.7 °F 29.5 °F 30.01 in Calm     81% 0.00 in 0.0 W/m2
19:16 34.4 °F 28.9 °F 30.01 in Calm     80% 0.00 in 0.0 W/m2
19:21 34.1 °F 28.6 °F 30.01 in Calm     80% 0.00 in 0.0 W/m2
19:26 33.9 °F 28.4 °F 30.01 in Calm     80% 0.00 in 0.0 W/m2
19:31 33.8 °F 28.3 °F 30.01 in Calm     80% 0.00 in 0.0 W/m2
19:36 33.7 °F 28.2 °F 30.01 in Calm     80% 0.00 in 0.0 W/m2
19:41 33.5 °F 28.0 °F 30.02 in Calm     80% 0.00 in 0.0 W/m2
19:46 33.3 °F 27.8 °F 30.02 in Calm     80% 0.00 in 0.0 W/m2
19:51 33.0 °F 27.5 °F 30.02 in Calm     80% 0.00 in 0.0 W/m2
19:56 32.9 °F 28.0 °F 30.03 in Calm     82% 0.00 in 0.0 W/m2
20:01 33.2 °F 28.3 °F 30.03 in Calm     82% 0.00 in 0.0 W/m2
20:06 33.2 °F 28.0 °F 30.03 in Calm     81% 0.00 in 0.0 W/m2
20:11 33.1 °F 27.6 °F 30.03 in Calm     80% 0.00 in 0.0 W/m2
20:16 33.0 °F 27.5 °F 30.04 in Calm     80% 0.00 in 0.0 W/m2
20:21 32.7 °F 27.2 °F 30.03 in Calm     80% 0.00 in 0.0 W/m2
20:26 32.4 °F 26.9 °F 30.04 in Calm     80% 0.00 in 0.0 W/m2
20:31 31.9 °F 26.4 °F 30.04 in Calm     80% 0.00 in 0.0 W/m2
20:36 31.6 °F 26.4 °F 30.04 in Calm     81% 0.00 in 0.0 W/m2
20:41 31.4 °F 26.5 °F 30.05 in Calm     82% 0.00 in 0.0 W/m2
20:46 31.2 °F 26.3 °F 30.05 in Calm     82% 0.00 in 0.0 W/m2
20:51 31.0 °F 26.1 °F 30.05 in Calm     82% 0.00 in 0.0 W/m2
20:56 31.0 °F 26.1 °F 30.05 in Calm     82% 0.00 in 0.0 W/m2
21:01 31.0 °F 26.1 °F 30.05 in Calm     82% 0.00 in 0.0 W/m2
21:06 30.8 °F 26.0 °F 30.05 in Calm     82% 0.00 in 0.0 W/m2
21:11 30.7 °F 25.9 °F 30.05 in Calm     82% 0.00 in 0.0 W/m2
21:16 30.5 °F 25.7 °F 30.05 in Calm     82% 0.00 in 0.0 W/m2
21:21 30.5 °F 25.7 °F 30.06 in Calm     82% 0.00 in 0.0 W/m2
21:26 30.4 °F 25.6 °F 30.06 in Calm     82% 0.00 in 0.0 W/m2
21:31 30.3 °F 25.5 °F 30.06 in Calm     82% 0.00 in 0.0 W/m2
21:36 30.3 °F 25.2 °F 30.06 in Calm     81% 0.00 in 0.0 W/m2
21:41 30.4 °F 25.6 °F 30.06 in Calm     82% 0.00 in 0.0 W/m2
21:46 30.5 °F 25.4 °F 30.06 in Calm     81% 0.00 in 0.0 W/m2
21:51 30.5 °F 25.4 °F 30.06 in Calm     81% 0.00 in 0.0 W/m2
21:56 30.3 °F 25.2 °F 30.06 in Calm     81% 0.00 in 0.0 W/m2
22:01 30.2 °F 25.1 °F 30.06 in Calm     81% 0.00 in 0.0 W/m2
22:06 30.1 °F 25.3 °F 30.06 in Calm     82% 0.00 in 0.0 W/m2
22:11 30.2 °F 25.7 °F 30.06 in Calm     83% 0.00 in 0.0 W/m2
22:16 30.2 °F 25.4 °F 30.06 in Calm     82% 0.00 in 0.0 W/m2
22:21 30.3 °F 25.8 °F 30.06 in Calm     83% 0.00 in 0.0 W/m2
22:26 30.4 °F 25.9 °F 30.06 in Calm     83% 0.00 in 0.0 W/m2
22:31 30.5 °F 26.0 °F 30.06 in Calm     83% 0.00 in 0.0 W/m2
22:36 30.6 °F 25.8 °F 30.07 in Calm     82% 0.00 in 0.0 W/m2
22:41 30.6 °F 25.8 °F 30.07 in Calm     82% 0.00 in 0.0 W/m2
22:46 30.5 °F 25.7 °F 30.07 in Calm     82% 0.00 in 0.0 W/m2
22:51 30.3 °F 25.5 °F 30.07 in Calm     82% 0.00 in 0.0 W/m2
22:56 30.0 °F 24.6 °F 30.07 in Calm     80% 0.00 in 0.0 W/m2
23:01 29.6 °F 24.5 °F 30.07 in Calm     81% 0.00 in 0.0 W/m2
23:06 29.4 °F 24.3 °F 30.06 in Calm     81% 0.00 in 0.0 W/m2
23:11 29.2 °F 24.1 °F 30.07 in Calm     81% 0.00 in 0.0 W/m2
23:16 29.0 °F 24.2 °F 30.07 in Calm     82% 0.00 in 0.0 W/m2
23:21 28.7 °F 23.9 °F 30.07 in Calm     82% 0.00 in 0.0 W/m2
23:26 28.3 °F 23.8 °F 30.07 in Calm     83% 0.00 in 0.0 W/m2
23:31 28.1 °F 23.6 °F 30.06 in Calm     83% 0.00 in 0.0 W/m2
23:36 28.0 °F 23.5 °F 30.07 in Calm     83% 0.00 in 0.0 W/m2
23:41 27.8 °F 23.3 °F 30.06 in Calm     83% 0.00 in 0.0 W/m2
23:46 27.6 °F 23.1 °F 30.06 in Calm     83% 0.00 in 0.0 W/m2
23:51 27.8 °F 23.6 °F 30.06 in Calm     84% 0.00 in 0.0 W/m2
23:56 27.8 °F 23.3 °F 30.07 in Calm     83% 0.00 in 0.0 W/m2
Bourbonnais, Illinois, USA
Compliments of Weather Underground - 4 mb